NANOSATC-BR1

Last updated on Mon Sep 21 2026 00:03:44 GMT+0000 (Coordinated Universal Time)

1 40024U 14033Q 26263.05528319 .00012159 00000+0 36999-3 0 9999 2 40024 98.0653 304.0238 0003272 188.2084 171.9104 15.34184642668515
UTC large
Height (km)
Speed (km/s)
/
Latitude / Longitude
Inclination (degrees)
Orbital Period (minutes)
Azimuth
Elevation
Range (km)
Doppler Factor

Next 0 passes for location: London (51.5072 / 0.1276)

No passes found over London.
NANOSATC-BR1